Regional Weather Roundup
Issued by NWS Cleveland, OH

Home | Current Version | Previous Version | Text Only | Print | Product List | Glossary Off
Versions: 1 2 3 4 5 6 7 8 9 10 11 12 13 14 15 16 17 18 19 20 21 22 23 24 25 26 27 28 29 30 31 32 33 34 35 36 37 38 39 40 41 42 43 44 45 46 47 48 49 50

000
ASUS41 KCLE 230310
RWRCLE
OHIO REGIONAL WEATHER ROUNDUP
NATIONAL WEATHER SERVICE CLEVELAND, OH
1100 PM EDT TUE APR 22 2014

NOTE: "FAIR" INDICATES FEW OR NO CLOUDS BELOW 12,000 FEET WITH NO
SIGNIFICANT WEATHER AND/OR OBSTRUCTIONS TO VISIBILITY.

OHZ001>008-015>018-024>027-034-035-043-044-230400-
   NORTHWEST OHIO

CITY           SKY/WX    TMP DP  RH WIND       PRES   REMARKS
DEFIANCE       CLEAR     42  29  59 NW7       29.97R
FINDLAY        CLEAR     43  31  62 NW9       29.94R
TOLEDO EXPRESS MOCLDY    44  28  53 NW10      29.94R
TOLEDO EXEC    CLOUDY    46  29  51 NW22      29.95R
LIMA           CLEAR     45  31  58 NW13      29.95R
$$

OHZ009>014-019>023-028>033-038-089-230400-
   NORTHEAST OHIO

CITY           SKY/WX    TMP DP  RH WIND       PRES   REMARKS
CLE-HOPKINS    CLOUDY    46  34  62 NW14      29.92R
CLE-LAKEFRONT  CLOUDY    42  37  82 N15       29.88R
CUY CO. ARPT   NOT AVBL
LORAIN-ELYRIA  CLOUDY    47  34  60 N13       29.90R
ASHTABULA      LGT RAIN  39  34  82 NW13G23   29.86S
AKRON-CANTON   CLOUDY    47  35  64 NW12      29.86R
WOOSTER        CLOUDY    45  34  65 N18G24    29.89R
MANSFIELD      PTCLDY    44  33  65 NW18G24   29.89R
YOUNGSTOWN     LGT RAIN  41  36  82 NW14      29.84R
$$

OHZ042-051>053-060>062-070>072-077>081-230400-
  SOUTHWEST OHIO

CITY           SKY/WX    TMP DP  RH WIND       PRES   REMARKS
CINC-COVINGTON CLEAR     49  30  48 N13       29.97R
CINC-LUNKEN    CLEAR     49  31  49 N9        29.99R
HAMILTON       CLEAR     48  32  53 NW7       29.99R
DAYTON         PTCLDY    46  31  55 N13       29.96S
WRIGHT-PAT AFB PTCLDY    47  30  53 NW10      29.95R
DAYTON GENERAL PTCLDY    47  31  53 N9        29.96R
WILMINGTON     PTCLDY    47  29  49 NW16      29.95R
$$

OHZ036-037-039>041-045>050-054>059-063>069-073>076-082>088-230400-
  CENTRAL AND SOUTHEAST OHIO

CITY           SKY/WX    TMP DP  RH WIND       PRES   REMARKS
COLUMBUS       MOCLDY    53  31  42 NW20G26   29.90R
OSU AIRPORT    CLOUDY    48  32  53 NW18G25   29.91R
BOLTON FIELD   PTCLDY    46  34  62 NW12      29.92R
RICKENBACK AFB PTCLDY    51  31  45 NW14G22   29.91R
NEWARK         PTCLDY    50  32  50 NW12      29.88R
MARION         MOCLDY    46  32  58 N17       29.92R
LANCASTER      MOCLDY    50  34  54 NW9       29.90R
ZANESVILLE     MOCLDY    52  32  46 NW16      29.86R
NEW PHILLY     CLOUDY    49  33  54 N17G23    29.86R
$$



USA.gov is the U.S. government's official web portal to all federal, state and local government web resources and services.